sat.trackr.live / text

‹ back to catalog

STARLINK-2752

NORAD 48692 · 2021-044BG

PAYLOAD ACTIVE UNKNOWN

§ Identity

Operator
Country
US
Launch date
2021-05-26
Launch site
AFETR
Launch vehicle
Mass (kg)
RCS (m²)

Purposes: comms

External: N2YO · Heavens-Above · Gunter

§ Orbital elements

Epoch: 2026-09-09T09:37:26.283360Z

Period
94.01 min
Inclination
53.1592°
Eccentricity
0.0001061
Mean motion
15.31715869 rev/d
Perigee alt
470.0 km
Apogee alt
471.4 km
Semi-major
6,848.8 km
B*
7.5140e-5
RAAN
300.1624°
Arg perigee
83.0285°
Mean anomaly
277.0837°
Rev number
29,251

§ Raw data

STARLINK-27521 48692U 21044BG  26252.40099865  .00001968  00000+0  75140-4 0  99922 48692  53.1592 300.1624 0001061  83.0285 277.0837 15.31715869292515

JSON: /api/v1/satellites/48692 · /tle

For live sub-satellite position, see the globe view (requires WebGL).

§ Visibility from observer

Set your observer location to see the next 7 days of passes ≥ 10°. The values pass through the URL so the page stays shareable.

No JS? Fill the form by hand. The geolocation button needs JavaScript.